Tracking 35334 objects as of 13-Sep-2026
HD Live streaming from Space Station
objects crossing your sky now

CIRBE


CIRBE is no longer on orbit
CIRBE is classified as:


NORAD ID: 56188
Int'l Code: 2023-054L
Launch date: April 15, 2023
Source: United States (US)
Launch site: AIR FORCE WESTERN TEST RANGE (AFWTR)
Decay date: 2024-10-04

Uplink (MHz):
Downlink (MHz): 437.250/2402.000
Beacon (MHz):
Mode: 9k6*/19k2 GFSK
Call sign: CIRBE
Status: Reentered

Your satellite tracking list
Your tracking list is empty




NASA's NSSDC Master Catalog

Two Line Element Set (TLE):
1 56188U 23054L   24278.18657892  .15167412  25747-5  32054-3 0  9995
2 56188  97.3167 183.5106 0004698 260.0967  99.9806 16.46793547 83389
Source of the keplerian elements: AFSPC